Lid_Strength_Index
13 13 14 14 13 13 13 14 15 15 13 15 15 13 12 13 12 11 10 10 10 9 9 9 9 9 9 10 9 8 8 8 7 8 9 10 11 11 11 12 12 12 12 11
14 16 14 12 12 13 13 14 15 14 14 14 15 15 12 12 13 12 11 11 10 9 10 9 9 9 9 9 10 9 8 8 7 7 8 8 9 10 11 12 13 13 13 12
15 14 12 13 14 14 15 15 16 15 14 15 16 17 16 14 12 11 11 10 10 10 9 9 9 9 10 10 10 9 9 8 8 7 7 9 10 10 12 12 13 13 13 12
13 11 12 12 13 13 16 13 13 14 16 19 15 21 16 15 14 12 11 11 11 11 10 9 9 10 10 9 10 9 9 8 7 7 8 9 9 10 10 11 13 14 13 13
14 14 13 13 13 12 14 13 14 14 16 17 17 19 16 15 14 13 12 11 10 10 10 9 9 9 9 10 9 10 9 9 8 7 7 8 8 9 10 12 13 14 14 14
13 12 12 12 12 12 11 13 15 16 17 23 19 19 18 16 14 13 12 11 11 10 10 10 9 9 10 10 10 10 10 9 9 8 8 7 8 9 11 12 13 15 15 15
13 13 12 11 13 12 13 15 21 23 23 22 18 19 16 14 12 12 12 11 11 11 11 11 11 11 11 11 10 10 10 10 10 10 10 7 7 9 10 11 13 14 15 16
16 17 13 12 13 14 15 15 19 23 23 21 17 20 16 13 13 12 13 12 12 12 11 11 11 11 11 11 11 11 11 11 11 11 11 10 7 8 9 11 12 13 15 15
16 16 13 12 12 12 15 16 14 17 21 21 19 17 15 14 14 14 14 13 13 12 12 11 12 11 11 11 11 11 11 11 11 11 11 12 11 10 10 11 12 14 15 15
15 17 14 13 12 12 13 12 17 17 25 24 21 20 19 16 14 14 13 13 13 13 12 11 11 12 12 12 12 11 11 11 11 12 12 12 12 12 11 12 13 14 15 16
13 15 16 13 14 14 14 15 14 14 16 19 22 20 16 15 14 13 13 13 13 12 11 11 11 12 12 12 12 12 12 12 13 13 13 13 14 13 13 13 13 15 16 16
13 15 18 16 14 13 13 14 14 17 18 17 17 18 14 14 14 13 13 13 12 11 11 10 10 11 11 12 12 12 12 12 12 13 13 14 14 14 15 15 15 15 16 16
12 18 22 19 16 15 15 14 13 13 15 17 19 18 14 14 12 11 12 11 10 11 10 10 10 11 11 12 12 12 12 11 12 13 14 14 14 15 15 15 15 16 16 16
10 14 16 19 17 15 15 14 13 13 16 15 15 14 11 10 11 11 11 11 11 11 11 11 11 11 11 11 12 12 12 12 12 13 14 14 14 15 15 15 16 16 16 17
12 18 16 14 14 14 14 14 14 15 14 15 14 14 12 11 11 11 10 10 11 11 11 11 12 11 11 11 12 12 11 12 12 13 13 14 14 15 15 16 16 17 17 17
12 15 14 16 13 14 16 14 14 13 13 13 13 14 9 9 9 10 10 11 11 10 10 11 11 12 12 12 12 12 12 12 13 13 13 13 14 15 15 15 16 16 17 17
16 16 22 21 18 18 22 17 15 14 12 13 14 12 10 11 10 10 11 11 10 10 10 10 10 10 10 10 10 11 11 12 13 13 12 13 13 14 14 14 15 16 17 17
17 23 23 24 23 29 18 16 15 15 14 13 12 11 11 10 10 10 10 10 11 11 11 10 10 10 10 10 10 10 11 13 14 14 13 13 13 14 14 15 15 15 16 17
14 16 18 22 31 21 17 16 16 16 16 13 13 12 11 11 12 12 10 10 10 10 10 10 9 9 9 9 10 11 12 13 14 14 14 14 14 15 15 15 15 15 15 17
15 13 16 27 27 28 19 15 15 15 20 13 12 12 13 12 15 13 10 11 11 10 9 10 9 9 10 9 10 11 12 13 13 13 13 14 14 15 16 16 15 15 15 16
21 18 18 19 23 23 17 15 15 23 19 14 12 12 12 13 12 12 11 12 11 10 10 10 10 9 9 9 11 11 11 12 11 13 13 14 14 15 15 16 16 16 16 15
24 26 25 26 28 26 16 16 18 15 15 13 12 12 12 12 12 12 12 12 12 12 11 11 11 10 9 10 11 11 12 10 11 13 14 14 14 15 15 16 16 16 17 17
24 22 23 22 21 17 15 15 13 14 14 14 14 12 13 13 12 11 12 12 12 12 11 10 11 10 10 11 11 12 11 11 12 14 14 15 16 15 15 16 17 17 17 17
24 25 22 21 19 16 16 15 14 13 13 13 13 13 13 12 12 12 12 12 12 11 11 10 11 11 11 10 12 11 11 12 15 15 15 15 15 16 16 16 16 17 17 17
21 20 20 21 17 16 16 14 13 13 13 13 12 12 12 12 12 11 12 12 12 12 12 11 11 11 11 11 11 12 12 14 15 15 15 15 15 15 16 16 16 16 16 16
20 18 19 18 14 15 14 14 13 14 14 12 13 12 11 11 12 11 12 11 12 12 11 12 12 12 11 11 11 12 13 15 15 15 15 15 16 16 16 16 17 14 14 14